Regional Weather Roundup
Issued by NWS

Home | Current Version | Previous Version | Graphics & Text | Print | Product List | Glossary On
Versions: 1 2 3 4 5 6 7 8 9 10 11 12 13 14 15 16 17 18 19 20 21 22 23 24 25 26 27 28 29 30 31 32 33 34 35 36 37 38 39 40 41 42 43 44 45 46 47 48 49 50
000
ASUS43 KOAX 312002
RWRNE

WEATHER ROUNDUP FOR NEBRASKA
NATIONAL WEATHER SERVICE OMAHA NE
300 PM CDT FRI JUL 31 2015

NOTES: SATELLITE DATA IS BEING USED TO AUGMENT CLOUD COVER ABOVE
       12000 FEET.
       "FAIR" INDICATES FEW OR NO CLOUDS BELOW 12,000 FEET WITH NO
       SIGNIFICANT WEATHER AND/OR OBSTRUCTIONS TO VISIBILITY.

  * THESE STATIONS DO NOT REPORT WEATHER SUCH AS RAIN...SNOW OR FOG.

NEZ001>004-019>022-054>056-312100-
NEBRASKA PANHANDLE

CITY           SKY/WX    TMP DP  RH WIND       PRES   REMARKS
SCOTTSBLUFF    SUNNY     90  62  39 E12       30.20F HX  90
ALLIANCE       MOSUNNY   91  51  25 SE9G16    30.20F
CHADRON        SUNNY     94  52  24 E10       30.15F HX  91
KIMBALL        CLOUDY    88  45  22 S9G16     30.26F
SIDNEY         SUNNY     91  49  23 E8        30.24F
$$

NEZ057>060-069>072-079>082-312100-
SOUTHWEST NEBRASKA

CITY           SKY/WX    TMP DP  RH WIND       PRES   REMARKS
NORTH PLATTE   SUNNY     91  63  39 E5        30.15F HX  92
IMPERIAL       SUNNY     90  56  31 VRB5      30.19F
MCCOOK         SUNNY     93  61  34 S8        30.15F HX  93
$$

NEZ005>010-023>029-035>040-094-312100-
NORTH CENTRAL NEBRASKA

CITY           SKY/WX    TMP DP  RH WIND       PRES   REMARKS
VALENTINE      SUNNY     94  49  21 N10       30.14F HX  90
BROKEN BOW     MOSUNNY   91  62  37 SW6       30.14F HX  91
$$

NEZ041-046>049-061>064-073>077-083>087-312100-
SOUTH CENTRAL NEBRASKA

CITY           SKY/WX    TMP DP  RH WIND       PRES   REMARKS
GRAND ISLAND   MOSUNNY   92  67  43 S13       30.12F HX  95
AURORA         SUNNY     89  69  51 SW9       30.11F HX  93
HASTINGS       SUNNY     89  69  51 VRB5      30.14F HX  93
KEARNEY *      SUNNY     90  66  45 S14       30.14F HX  92
$$

NEZ011>018-030>034-042>045-312100-
NORTHEAST NEBRASKA

CITY           SKY/WX    TMP DP  RH WIND       PRES   REMARKS
NORFOLK        SUNNY     90  67  46 W5        30.08F HX  93
BLAIR          MOSUNNY   88  71  57 W6        30.09F HX  93
COLUMBUS *     MOSUNNY   88  68  51 SW6       30.07F HX  91
TEKAMAH        MOSUNNY   89  75  63 VRB3      30.08F HX  99
$$

NEZ050>053-065>068-078-088>093-312100-
SOUTHEAST NEBRASKA

CITY           SKY/WX    TMP DP  RH WIND       PRES   REMARKS
LINCOLN        SUNNY     92  70  48 SW8       30.09F HX  97
OMAHA EPPLEY   MOSUNNY   91  73  55 NW7       30.07F HX  99
FALLS CITY     SUNNY     87  72  60 VRB5      30.10F HX  93
$$

NEZ044-045-051>053-067-312100-
OMAHA AREA

CITY           SKY/WX    TMP DP  RH WIND       PRES   REMARKS
OMAHA EPPLEY   MOSUNNY   91  73  55 NW7       30.07F HX  99
BLAIR          MOSUNNY   88  71  57 W6        30.09F HX  93
OFFUTT AFB     MOSUNNY   90  73  57 SW7       30.07F HX  97
$$


USA.gov is the U.S. government's official web portal to all federal, state and local government web resources and services.